Regional Weather Roundup
Issued by NWS

Home | Current Version | Previous Version | Text Only | Print | Product List | Glossary On
Versions: 1 2 3 4 5 6 7 8 9 10 11 12 13 14 15 16 17 18 19 20 21 22 23 24 25 26 27 28 29 30 31 32 33 34 35 36 37 38 39 40 41 42 43 44 45 46 47 48 49 50
981
ASUS43 KMKX 172011
RWRWI

WISCONSIN REGIONAL WEATHER ROUNDUP
NATIONAL WEATHER SERVICE MILWAUKEE/SULLIVAN WI
300 PM CDT THU AUG 17 2017

NOTE: "FAIR" INDICATES FEW OR NO CLOUDS BELOW 12,000 FEET WITH NO
SIGNIFICANT WEATHER AND/OR OBSTRUCTIONS TO VISIBILITY.

WIZ001-002-006>008-014>016-023>028-172100-
NORTHWEST WISCONSIN

CITY           SKY/WX    TMP DP  RH WIND       PRES   REMARKS
SUPERIOR ARPT    N/A     65  62  89 N9        29.66S
ASHLAND        CLOUDY    64  63  96 N8        29.60R
HAYWARD        LGT RAIN  63  60  90 MISG      29.63R FOG
SIREN          CLOUDY    62  61  94 NW9       29.69R
CUMBERLAND     CLOUDY    63  59  88 NW18G25   29.66R
RICE LAKE      CLOUDY    65  61  85 W13G25    29.66R
CHETEK         CLOUDY    66  62  89 NW12G24   29.63R
LADYSMITH      RAIN      69  66  90 W15G25    29.60R
EAU CLAIRE     CLOUDY    68  63  84 W18G29    29.62R
MENOMONIE      CLOUDY    66  62  85 W15       29.66R
NEW RICHMOND   CLOUDY    65  60  83 NW14      29.70R
OSCEOLA        CLOUDY    67  66  96 NW7G17    29.73R
$$

WIZ003>005-009-010-017-018-172100-
NORTH CENTRAL WISCONSIN

CITY           SKY/WX    TMP DP  RH WIND       PRES   REMARKS
MANITOWISH WTR RAIN      65  65 100 CALM      29.57S
ARBOR VITAE    CLOUDY    72  67  84 CALM      29.56S
WOODRUFF       CLOUDY    72  67  84 CALM      29.56S
RHINELANDER    LGT RAIN  68  67  96 VRB3      29.56F
EAGLE RIVER    LGT RAIN  66  65  96 CALM      29.57S
LAND O LAKES   CLOUDY    71  63  76 SW7       29.58R
PHILLIPS       CLOUDY    69  66  92 N7        29.56R
TOMAHAWK         N/A     70  66  86 CALM      29.55S
MEDFORD        CLOUDY    68  65  91 W16       29.56R
MERRILL        CLOUDY    70  70 100 SW10      29.54F FOG
$$

WIZ029-030-035-036-043>047-172100-
CENTRAL WISCONSIN

CITY           SKY/WX    TMP DP  RH WIND       PRES   REMARKS
WAUSAU         CLOUDY    68  67  96 SW9       29.53S
MOSINEE        LGT RAIN  66  66 100 SW9       29.56F FOG
MARSHFIELD     PTSUNNY   72  64  76 W17G25    29.56R
STEVENS POINT  CLOUDY    69  66  92 SW15G23   29.57S
WAUPACA        PTSUNNY   76  67  72 SW16G22   29.58F
WAUTOMA        PTSUNNY   76  68  76 SW13      29.60F
WISC RAPIDS    LGT RAIN  73  67  81 W13G20    29.60R
CAMP DOUGLAS   PTSUNNY   75  66  73 W17G24    29.60F
$$

WIZ011>013-019>022-031-037>040-048>050-172100-
NORTHEAST WISCONSIN

CITY           SKY/WX    TMP DP  RH WIND       PRES   REMARKS
ANTIGO         RAIN      67  66  95 S12       29.56F
SHAWANO        RAIN      75  65  69 SW12G21   29.56S
OCONTO         PTSUNNY   78  64  61 SW14G20   29.56S HX  80
STURGEON BAY   MOSUNNY   73  69  87 S15       29.58F
GREEN BAY      CLOUDY    76  66  71 SW12G20   29.57F
MANITOWOC      PTSUNNY   80  63  55 SW17G23   29.59  HX  81
APPLETON       PTSUNNY   73  61  64 SW24G35   29.59S
CLINTONVILLE   LGT RAIN  72  68  88 SW13      29.57S
OSHKOSH        CLOUDY    74  65  73 SW9       29.60S
$$

WIZ032>034-041-042-053>061-172100-
SOUTHWEST WISCONSIN

CITY           SKY/WX    TMP DP  RH WIND       PRES   REMARKS
LA CROSSE      CLOUDY    76  65  68 W21       29.64R
SPARTA         CLOUDY    72  64  77 W10G24    29.64R
VIROQUA        CLOUDY    68  67  94 W14G21    29.68S
BOSCOBEL       CLOUDY    73  64  73 W14G29    29.69R
PRAIRIE DU CHI CLOUDY    73  62  68 W15G24    29.70S
PLATTEVILLE    CLOUDY    72  69  91 W16       29.73S
$$

WIZ056-057-062-063-064-067-068-172100-
SOUTH CENTRAL WISCONSIN

CITY           SKY/WX    TMP DP  RH WIND       PRES   REMARKS
REEDSBURG      CLOUDY    72  66  81 W18G25    29.64S
BARABOO/DELLS  CLOUDY    71  64  78 SW15G21   29.64S
LONE ROCK      CLOUDY    73  66  78 W21G31    29.66S
MINERAL POINT  CLOUDY    72  70  94 W16G25    29.71R
MADISON        PTSUNNY   74  66  76 SW13G25   29.65F
MIDDLETON      PTSUNNY   76  66  71 W20       29.66F
WATERTOWN      CLOUDY    73  67  83 SW16G26   29.66S
MONROE         CLOUDY    73  64  73 SW23G29   29.71R
JANESVILLE     PTSUNNY   79  64  61 W21       29.68F HX  81
$$

WIZ051-052-058>065-066-070>072-172100-
SOUTHEAST WISCONSIN

CITY           SKY/WX    TMP DP  RH WIND       PRES   REMARKS
MILWAUKEE      MOSUNNY   81  64  56 SW22G30   29.66F HX  82
WAUKESHA       PTSUNNY   75  63  64 SW13G24   29.68F
MILWAUKEE/TIMM MOSUNNY   79  59  50 SW20G28   29.66F HX  80
RACINE         MOSUNNY   79  65  62 W14G22    29.69S HX  81
KENOSHA        SUNNY     79  64  60 W16G31    29.69S HX  81
FOND DU LAC    LGT RAIN  72  66  81 SW15G25   29.62S
SHEBOYGAN      MOSUNNY   80  65  59 SW18G26   29.61F HX  82
WEST BEND      PTSUNNY   77  63  61 SW20G25   29.63F
JUNEAU         CLOUDY    73  66  80 SW16G23   29.66S
$$

LSZ147-162-172100-
LAKE SUPERIOR

STATION/POSITION TIME  TEMP    WIND        PRES    WAVE
                       AIR SEA DIR/SP/G            HT/PER
                 (UTC) (F)     (DEG/KT/KT) (MB)    (FT/S)
W MID LAKE BUOY  1950   59 60   20/ 19/ 23 1000.9R   4/ 6
DEVILS ISLAND    2000   60      20/ 20/ 22 1002.6R
PORT WING        1740   54      30/  8/  9 1002.7
SAXON HARBOR     1930   63     360/  7/  8 1001.0S
$$

LMZ867-665-643>646-172100-
LAKE MICHIGAN

STATION/POSITION TIME  TEMP    WIND        PRES    WAVE
                       AIR SEA DIR/SP/G            HT/PER
                 (UTC) (F)     (DEG/KT/KT) (MB)    (FT/S)
S GREEN BAY BUOY 2000   74 72  210/ 14/ 17 1001.1
N MID LAKE BUOY  1950   69 68  180/ 19/ 23 1002.3F   4/ 5
NORTHPORT PIER   1940   72     160/  9/ 16 1001.7F
KEWAUNEE LAKESHO 1948   72     170/ 14/ 17 1001.3F
SHEBOYGAN LAKESH 2000   78     220/ 18/ 23 1001.9F
PORT WASHINGTON  1940   82     250/ 11/ 19 1004.1F
ATWATER BUOY     1939   77 71  220/ 17/ 21 1004.5F
MILWAUKEE LAKESH 1950   78     260/ 15/ 20   N/A
S MID LAKE BUOY  1950   73 72  210/ 19/ 23 1004.9F   3/ 5
KENOSHA   LAKESH 2000   79     250/ 18/ 27 1005.1
$$

TC  - TEMPERATURE IN CELSIUS
VSB - VISIBILITY IN STATUTE MILES
WCI - WIND CHILL INDEX
HX  - HEAT INDEX





USA.gov is the U.S. government's official web portal to all federal, state and local government web resources and services.